This is the latest recevied weather packets stored in our database for station/object KK7ISX. If no packets are shown the sender has not sent any weather packets the latest 10 day(s).
| Time | Temp. | Humidity | Pressure | Rain* | Wind** | Luminosity | Snow |
|---|---|---|---|---|---|---|---|
| 1777644275 | 11.67° C | 56% | 1020.8 hPa | 0 mm | - | 43 W/m² | - |
| 1777643971 | 11.67° C | 57% | 1020.7 hPa | 0 mm | - | 72 W/m² | - |
| 1777643668 | 11.11° C | 58% | 1020.8 hPa | 0 mm | - | 74 W/m² | - |
| 1777643366 | 10.56° C | 59% | 1020.8 hPa | 0 mm | - | 38 W/m² | - |
| 1777643062 | 10° C | 62% | 1020.7 hPa | 0 mm | - | 69 W/m² | - |
| 1777642759 | 8.89° C | 67% | 1020.7 hPa | 0 mm | - | 58 W/m² | - |
| 1777642456 | 8.33° C | 70% | 1020.7 hPa | 0 mm | - | 53 W/m² | - |
| 1777642151 | 7.78° C | 69% | 1020.5 hPa | 0 mm | - | 45 W/m² | - |
| 1777641849 | 7.22° C | 72% | 1020.3 hPa | 0 mm | - | 38 W/m² | - |
| 1777641544 | 6.67° C | 74% | 1020.3 hPa | 0 mm | - | 32 W/m² | - |
| 1777641243 | 7.22° C | 73% | 1020.5 hPa | 0 mm | - | 28 W/m² | - |
| 1777640941 | 7.22° C | 72% | 1020.3 hPa | 0 mm | - | 23 W/m² | - |
| 1777640637 | 6.67° C | 73% | 1020.5 hPa | 0 mm | - | 19 W/m² | - |
| 1777640333 | 7.22° C | 72% | 1020.2 hPa | 0 mm | - | 15 W/m² | - |
| 1777640030 | 8.89° C | 68% | 1020.1 hPa | 0 mm | - | 12 W/m² | - |
| 1777639727 | 8.89° C | 66% | 1020.1 hPa | 0 mm | - | 8 W/m² | - |
| 1777639426 | 8.89° C | 66% | 1020.1 hPa | 0 mm | - | 6 W/m² | - |
| 1777639125 | 8.89° C | 67% | 1019.9 hPa | 0 mm | - | 4 W/m² | - |
| 1777638823 | 8.89° C | 67% | 1020.1 hPa | 0 mm | - | 2 W/m² | - |
| 1777638518 | 8.89° C | 67% | 1019.8 hPa | 0 mm | - | 1 W/m² | - |
| 1777638215 | 8.89° C | 66% | 1019.8 hPa | 0 mm | - | 0 W/m² | - |
| 1777637911 | 8.89° C | 67% | 1019.8 hPa | 0 mm | - | 0 W/m² | - |
| 1777637608 | 8.89° C | 67% | 1019.8 hPa | 0 mm | - | 0 W/m² | - |
| 1777637305 | 8.89° C | 67% | 1019.7 hPa | 0 mm | - | 0 W/m² | - |
| 1777637002 | 8.89° C | 67% | 1019.9 hPa | 0 mm | - | 0 W/m² | - |
* Rain latest hour (hover to see other rain measurements)
** Current wind speed in m/s (hover to see current wind gust speed)